Location: Bakov nad Jizerou
(50.4784°N, 14.9394°E)
Time: 11:57:52
(UTC+00:00)

SL-8 R/B - Pass Details

Date: 26 October 2021
Orbit: 656 x 667 km, 48.4° (Epoch: 29 November)

Event Time Altitude Azimuth Distance (km) Brightness Sun altitude
Rises 18:49:17 0° 278° (W) 2,989 8.3 -29.5°
Reaches altitude 10° 18:51:40 10° 274° (W) 2,077 7.1 -29.8°
Enters shadow 18:54:48 36° 249° (WSW) 1,043 5.0 -30.3°
